Regional Weather Roundup
Issued by NWS

Home | Current Version | Previous Version | Text Only | Print | Product List | Glossary On
Versions: 1 2 3 4 5 6 7 8 9 10 11 12 13 14 15 16 17 18 19 20 21 22 23 24 25 26 27 28 29 30 31 32 33 34 35 36 37 38 39 40 41 42 43 44 45 46 47 48 49 50
000
ASUS44 KMEG 172010
RWRTN
TENNESSEE HOURLY STATE WEATHER ROUNDUP
NATIONAL WEATHER SERVICE MEMPHIS TN
200 PM CST SUN DEC 17 2017

TNZ002-004-019-021-049-052-054-088>092-172100-
WEST TENNESSEE

CITY           SKY/WX    TMP DP  RH WIND       PRES   REMARKS
MEMPHIS INTL   CLOUDY    48  45  89 SW6       30.09R
NWS MEMPHIS      N/A     48 N/A N/A MISG        N/A
JACKSON        CLOUDY    48  46  93 S5        30.09R
DYERSBURG      CLOUDY    47  43  86 VRB3      30.09S
SOMERVILLE     CLOUDY    48  46  93 CALM      30.07R FOG
COVINGTON      CLOUDY    46  45  93 CALM      30.08F
UNION CITY     CLOUDY    48  43  81 CALM      30.08S
BOLIVAR        CLOUDY    48  46  93 CALM      30.07S FOG
PARIS          CLOUDY    46  43  87 S5        30.07S
HUNTINGDON     CLOUDY    46  43  87 S3        30.08R
LEXINGTON      CLOUDY    46  45  93 SE3       30.08S FOG
SELMER         CLOUDY    46  46 100 VRB5      30.08R FOG
SAVANNAH       CLOUDY    46  46 100 CALM      30.09R FOG
$$

TNZ008-025-027-028-033-062-065-066-172100-
NORTH MIDDLE TENNESSEE

CITY           SKY/WX    TMP DP  RH WIND       PRES   REMARKS
NASHVILLE      CLOUDY    46  41  82 S3        30.11S
PORTLAND       CLOUDY    43  43 100 SE5       30.09F FOG
CLARKSVILLE    CLOUDY    45  40  82 S9        30.08F
SMYRNA         CLOUDY    46  43  89 VRB3      30.12F FOG
COOKEVILLE     CLOUDY    46  39  76 VRB5G12   30.11S
GALLATIN       CLOUDY    46  41  81 SE3       30.14R
CROSSVILLE     CLOUDY    43  37  79 S6        30.11R
$$

TNZ061-075-076-078-094-096-097-172100-
SOUTH MIDDLE TENNESSEE

CITY           SKY/WX    TMP DP  RH WIND       PRES   REMARKS
FAYETTEVILLE   CLOUDY    48  45  87 S10       30.08R
TULLAHOMA      CLOUDY    50  45  81 S10       30.08R
WINCHESTER     CLOUDY    46  43  87 SE9       30.10R
MCMINNVILLE    CLOUDY    50  43  76 CALM      30.09S
COLUMBIA       CLOUDY    46  46 100 CALM      30.07S FOG
SHELBYVILLE    CLOUDY    48  45  87 CALM      30.09S
$$

TNZ017-018-042-046-047-172100-
NORTHEAST TENNESSEE

CITY           SKY/WX    TMP DP  RH WIND       PRES   REMARKS
TRI CITIES     LGT RAIN  40  34  79 CALM      30.16S
ELIZABETHTON   CLOUDY    45  30  57 CALM      30.16S
$$

TNZ012-013-036-069-073-074-172100-
CENTRAL EAST TENNESSEE

CITY           SKY/WX    TMP DP  RH WIND       PRES   REMARKS
KNOXVILLE      LGT RAIN  41  40  96 SE7       30.14F
OAK RIDGE      CLOUDY    42  39  89 W5        30.18F
DOWNTOWN KNOXV MOSUNNY   43  37  81 VRB6G12   30.16F
GATLINBURG     PTSUNNY   41  36  81 CALM      30.17S
MORRISTOWN     CLOUDY    41  39  93 SE9       30.12F
JACKSBORO      PTSUNNY   43  36  75 VRB6      30.17R
$$

TNZ083-085-099-172100-
SOUTHEAST TENNESSEE

CITY           SKY/WX    TMP DP  RH WIND       PRES   REMARKS
CHATTANOOGA    CLOUDY    41  39  93 S5        30.17F FOG
DAYTON         MOCLDY    43  41  93 VRB3      30.15F
$$

SKY/WX REPORTED AS FAIR MEANS FEW OR NO CLOUDS BELOW
12 THOUSAND FEET.





USA.gov is the U.S. government's official web portal to all federal, state and local government web resources and services.